User: anonymous   Login
Location: PFO Observatory
(45.2937°N, 66.0991°W)
Time: 14:17:47
(UTC-03:00)
Language:

Cosmos 1151 Rocket - Orbit

View from above orbital plane
View from above orbital plane
View from above satellite
View from above satellite

Ground track
Ground track

The orbit data is extracted from the following two-line orbital elements,

1 11672U 80005B   15143.21562761  .00000399  00000-0  41158-4 0  9998
2 11672 082.5171 072.7763 0015575 310.0565 049.9285 14.87594533910992
Epoch (UTC): 23 May 2015 05:10:30
Eccentricity: 0.0015575
inclination: 82.5171°
perigee height: 594 km
apogee height: 616 km
right ascension of ascending node: 72.7763°
argument of perigee: 310.0565°
revolutions per day: 14.87594533
mean anomaly at epoch: 49.9285°
orbit number at epoch: 91099

The dashed part of the orbit path shows where the satellite is in the earth's shadow,  

DLR